Preview of NWS' New Version of Forecast
This preview is not operational and should not be used for support decisions.

Regional Weather Roundup (RWR)

Issued by National Weather Service (NWS)

                            
189 
ASUS42 KTBW 261816
RWRFL 
FLORIDA REGIONAL WEATHER ROUNDUP
NATIONAL WEATHER SERVICE TAMPA BAY RUSKIN FL
200 PM EDT TUE MAR 26 2019

NOTE: "FAIR" INDICATES FEW OR NO CLOUDS BELOW 12,000 FEET WITH NO
SIGNIFICANT WEATHER AND/OR OBSTRUCTIONS TO VISIBILITY.

FLZ001>010-012>015-112-114-115-261900-
PANHANDLE FLORIDA
  
CITY           SKY/WX    TMP DP  RH WIND       PRES   REMARKS
PENSACOLA      CLOUDY    66  47  50 N16G22    30.12F                  
PENSACOLA NAS  PTSUNNY   67  50  54 NW7G18    30.11F                  
MILTON NAS     PTSUNNY   63  49  60 N13G20    30.12F                  
CRESTVIEW      CLOUDY    65  48  54 N10       30.11F                  
DUKE FIELD     PTSUNNY   66  47  50 N13       30.09F                  
VALPARAISO     PTSUNNY   69  48  47 N10G20    30.08F                  
MARY ESTHER    PTSUNNY   68  48  47 N10       30.08F                  
PANAMA CITY    PTSUNNY   68  51  54 NW9G17    30.06S                  
TYNDALL AFB    FAIR      72  53  50 NW14      30.04F                  
APALACHICOLA   PTSUNNY   75  52  44 NW12G17   30.03F                  

STATION/POSITION SKY/WX   TEMP    WIND        PRES    WAVE   SWELL
                          AIR SEA DIR/SP/G            HT/PER HT/PER
                          (F)     (DEG/KT/KT) (MB)    (FT/S) (FT/S)
30.1N   87.6W                                 1020.5F   1/ 3
29.2N   88.2W                     340/ 14/ 16 1021.7F   3/ 5   2/ 7
PANAMA CITY BEAC           67 66              1018.4F
TOWER C                    64     280/ 10/ 10 1017.5F

$$
FLZ011-016>038-118-127-128-134-139-239-261900-
NORTH FLORIDA
  
CITY           SKY/WX    TMP DP  RH WIND       PRES   REMARKS
MARIANNA       PTSUNNY   70  51  51 N12       30.05F                  
TALLAHASSEE    FAIR      74  52  46 W7        30.02F                  
PERRY          FAIR      78  52  40 W7        30.01F                  
LIVE OAK       MOSUNNY   77  50  38 VRB3      30.00F                  
CROSS CITY     PTSUNNY   76  55  48 NW12      30.00F                  
LAKE CITY      PTSUNNY   73  52  46 N9G16     30.01F                  
GAINESVILLE    FAIR      79  55  43 W10       30.02F                  
WILLISTON        N/A    N/A N/A N/A MISG        N/A                   
PALATKA        FAIR      77  55  47 W7        30.00F                  
MAYPORT NAS    FAIR      68  59  73 NE16      30.03R                  
JACKSONVILLE   PTSUNNY   72  58  61 E15G21    30.00F                  
JAX NAS        PTSUNNY   75  53  46 NE6       30.00F                  
JAX CECIL      MOSUNNY  N/A N/A N/A NW9       30.00F                  
FERNANDINA BEA FAIR      66  57  74 NE22      30.03S                  
ST AUGUSTINE   PTSUNNY   69  59  70 NE18      30.02F                  
PALM COAST     PTSUNNY   75  57  53 E13       30.00F                  

STATION/POSITION SKY/WX   TEMP    WIND        PRES    WAVE   SWELL
                          AIR SEA DIR/SP/G            HT/PER HT/PER
                          (F)     (DEG/KT/KT) (MB)    (FT/S) (FT/S)
SHELL POINT      NOT AVBL
KEATON BEACH               68     270/ 10/ 12 1016.4F
CEDAR KEY                  71     290/  7/  8 1016.5F
FERNANDINA                 66 65              1017.5F
30.7N   81.3W                 65                N/A     2/ 3
MAYPORT                    62 63              1016.6F
31.4N   80.9W              61 63   20/ 14/ 17 1017.4F   2/ 4
ST AUGUSTINE               64 65   30/ 17/ 19 1016.4F

$$
FLZ040-043>046-052-053-057-058-063-144-261900-
INTERIOR CENTRAL FLORIDA
  
CITY           SKY/WX    TMP DP  RH WIND       PRES   REMARKS
OCALA          FAIR      79  58  48 W10       30.00F                  
LEESBURG       FAIR      78  60  53 W6        30.00F                  
SANFORD        PTSUNNY   80  61  52 VRB7G20   29.99F                  
ORLANDO EXEC   FAIR      81  59  47 NW9       29.99F                  
ORLANDO INTL   FAIR      79  59  50 W8        29.99F                  
KISSIMMEE      FAIR      81  60  48 W12       30.00F                  
WINTER HAVEN   FAIR      81  61  50 W9        30.01F                  
LAKELAND       PTSUNNY   79  59  50 W9        30.01F                  
BARTOW         PTSUNNY   81  61  50 W12       30.00F                  
SEBRING        FAIR      83  56  39 NW10      30.00F                  
OKEECHOBEE     FAIR      81  55  41 W7        30.00F                  

$$
FLZ041-047-054-059-064-141-147-261900-
EAST CENTRAL FLORIDA
  
CITY           SKY/WX    TMP DP  RH WIND       PRES   REMARKS
ORMOND BEACH   MOSUNNY   72  63  73 NE12      30.00F                  
DAYTONA BEACH  PTSUNNY   76  63  64 NE13      29.99F                  
DELAND         FAIR      79  59  50 N6        29.98F                  
NEW SMYRNA BEA MOSUNNY   73  63  68 NE12      30.01F                  
JFK SPACE CTR  FAIR     N/A N/A N/A NE10        N/A                   
TITUSVILLE     PTSUNNY   79  61  53 NE5       29.99F                  
CAPE CANAVERAL FAIR      76  62  61 N13       29.98F                  
PATRICK AFB    SUNNY     76  66  71 N12       29.98F                  
MELBOURNE      FAIR      82  63  52 NE7       29.98F                  
VERO BEACH     FAIR      78  62  57 E10       29.99F                  
STUART         PTSUNNY   79  64  61 E3        30.01F                  

STATION/POSITION SKY/WX   TEMP    WIND        PRES    WAVE   SWELL
                          AIR SEA DIR/SP/G            HT/PER HT/PER
                          (F)     (DEG/KT/KT) (MB)    (FT/S) (FT/S)
28.5N   80.2W              70     340/ 14/ 17 1016.2F   3/ 5   2/ 8
28.9N   78.5W              72 74  330/ 12/ 16 1015.8F   4/ 6   2/ 7
TRIDENT PIER               76 68              1016.7F
28.4N   80.5W                 71                N/A     1/ 7
27.5N   80.2W                 74                N/A     2/ 9

$$
FLZ050-056-061-142-242-148-248-149-249-151-251-155-255-
160-260-261900-
WEST CENTRAL FLORIDA
  
CITY           SKY/WX    TMP DP  RH WIND       PRES   REMARKS
CRYSTAL RIVER  PTSUNNY   73  63  68 W12       30.03S                  
INVERNESS      PTSUNNY   77  63  61 CALM      30.01F                  
BROOKSVILLE    FAIR      78  62  57 W17       30.02F                  
CLEARWATER AIR PTSUNNY   72  63  73 W12G17    30.03F                  
ST PETE CLEARW FAIR      74  62  66 NW10      30.02F                  
TAMPA INTL     FAIR      78  63  59 W14       30.02F                  
TAMPA EXEC     PTSUNNY   79  61  53 NW8       30.02F                  
PLANT CITY     FAIR      81  61  50 W10       30.03F                  
MACDILL AFB    FAIR      77  63  61 NW10      30.02F                  
PETER O KNIGHT FAIR      79  64  61 W7        30.02F                  
ST PETERSBURG  PTSUNNY   76  63  64 NW6       30.01F                  
SARASOTA       FAIR      77  64  64 W13       30.01F                  
VENICE         FAIR      77  64  65 NW16      30.04S                  

STATION/POSITION SKY/WX   TEMP    WIND        PRES    WAVE   SWELL
                          AIR SEA DIR/SP/G            HT/PER HT/PER
                          (F)     (DEG/KT/KT) (MB)    (FT/S) (FT/S)
27.3N   84.2W                 74                N/A     2/ 3
CLEARWATER BEACH           70 72              1017.3F
MIDDLE TAMPA BAY           70                 1017.0F
VENICE                     71 72  300/ 15/ 16 1016.9F

$$
FLZ066-069-070-075>078-162-262-165-265-261900-
SOUTHWEST FLORIDA AND KEYS
  
CITY           SKY/WX    TMP DP  RH WIND       PRES   REMARKS
PUNTA GORDA    FAIR      80  56  43 NW5       30.02F                  
FT MYERS       FAIR      81  62  52 W9        30.00F                  
SOUTHWEST INTL FAIR      81  65  58 VRB7      30.01F                  
NAPLES         FAIR      78  68  71 NW8       30.02F                  
MARCO ISLAND   FAIR      80  66  62 W13       30.02F                  
IMMOKALEE      PTSUNNY   84  66  54 NW5       29.98F                  
MARATHON       FAIR      83  61  47 NW7       30.02F                  
KEY WEST NAS   FAIR      82  61  48 NW7       30.03F                  
KEY WEST INTL  FAIR      82  66  58 NW8       30.03F                  

STATION/POSITION SKY/WX   TEMP    WIND        PRES    WAVE   SWELL
                          AIR SEA DIR/SP/G            HT/PER HT/PER
                          (F)     (DEG/KT/KT) (MB)    (FT/S) (FT/S)
NAPLES                     76 75              1016.8F
DRY TORTUGAS               76     330/  9/ 10 1017.2F
SAND KEY                   75                 1017.2F
SOMBRERO KEY               75                 1016.1F
MOLASSES REEF              78 78  220/  3/  3 1016.4F

$$
FLZ067-068-071>074-168-172>174-261900-
SOUTHEAST FLORIDA 
  
CITY           SKY/WX    TMP DP  RH WIND       PRES   REMARKS
W PALM BEACH   PTSUNNY   80  62  54 W9        30.00F                  
BOCA RATON     MOSUNNY   84  63  48 N12       30.00F                  
FT LAUDER-EXEC FAIR      84  57  39 NW8       29.99F                  
FT LAUDERDALE  PTSUNNY   83  59  44 MISG      29.99F                  
POMPANO BEACH  PTSUNNY   85  58  39 W10G16    30.00F                  
PEMBROKE PINES FAIR      85  58  39 W14       30.01F                  
OPA LOCKA      FAIR      85  60  42 NW9       30.00F                  
MIAMI          FAIR      84  59  42 W7        30.00F                  
WEST KENDALL   FAIR      86  60  41 N10       29.99F                  
HOMESTEAD      FAIR      85  60  43 W8        29.98F                  

STATION/POSITION SKY/WX   TEMP    WIND        PRES    WAVE   SWELL
                          AIR SEA DIR/SP/G            HT/PER HT/PER
                          (F)     (DEG/KT/KT) (MB)    (FT/S) (FT/S)
VIRGINIA KEY               78 78              1015.4F
LAKE WORTH                 75 78              1017.1F
FOWEY ROCKS                75 78  110/  3/  4 1016.3F
SETTLEMENT POINT           75     330/ 12/ 14 1016.2F

$$